When you browse on this site, cookies collect data to enhance your experience and personalize the content and advertising you see.
Visit our Privacy Policy to learn more. By continuing to use the site, you agree to this use of cookies and data.
  • In Hungary
  • List of Countries
  • For 7 days
  • Water Temperature
  • Weather Map
  • News
  • Weather Widgets
  • user-avatar
    Login

    Hourly Weather Ypsilanti

    Today, 7 December, Saturday

    Time Temperature Precipitation Wind Pressure Humidity
    00:00 -3°C° 0 mm 2 mps 749 mmHg 70%
    01:00 -4°C° 0 mm 2 mps 749 mmHg 70%
    02:00 -2°C° 0 mm 1 mps 749 mmHg 69%
    03:00 -2°C° 0 mm 1 mps 749 mmHg 68%
    04:00 -2°C° 0 mm 1 mps 749 mmHg 67%
    05:00 -2°C° 0 mm 1 mps 749 mmHg 66%
    06:00 -3°C° 0 mm 0 mps 749 mmHg 65%
    07:00 -1°C° 0 mm 1 mps 750 mmHg 61%
    08:00 -1°C° 0 mm 1 mps 750 mmHg 58%
    09:00 0°C° 0 mm 1 mps 750 mmHg 54%
    10:00 -1°C° 0 mm 2 mps 750 mmHg 51%
    11:00 -1°C° 0 mm 2 mps 750 mmHg 47%
    12:00 0°C° 0 mm 3 mps 749 mmHg 44%
    13:00 0°C° 0 mm 3 mps 749 mmHg 46%
    14:00 0°C° 0 mm 3 mps 749 mmHg 48%
    15:00 0°C° 0 mm 3 mps 748 mmHg 50%
    16:00 0°C° 0 mm 3 mps 748 mmHg 53%
    17:00 -1°C° 0 mm 3 mps 748 mmHg 56%
    18:00 -1°C° 0 mm 3 mps 748 mmHg 58%
    19:00 -1°C° 0 mm 3 mps 747 mmHg 59%
    20:00 -1°C° 0 mm 3 mps 747 mmHg 59%
    21:00 -2°C° 0 mm 4 mps 746 mmHg 59%
    22:00 -2°C° 0 mm 4 mps 746 mmHg 59%
    23:00 -2°C° 0 mm 4 mps 745 mmHg 59%

    Tomorrow, 8 December, Sunday

    Time Temperature Precipitation Wind Pressure Humidity
    00:00 -2°C° 0 mm 5 mps 745 mmHg 59%
    01:00 -2°C° 0 mm 5 mps 744 mmHg 60%
    02:00 -2°C° 0 mm 5 mps 744 mmHg 61%
    03:00 -2°C° 0 mm 5 mps 743 mmHg 62%
    04:00 -2°C° 0 mm 5 mps 743 mmHg 63%
    05:00 -2°C° 0 mm 5 mps 742 mmHg 63%
    06:00 -2°C° 0 mm 5 mps 742 mmHg 64%
    07:00 -2°C° 0 mm 6 mps 742 mmHg 67%
    08:00 -1°C° 0 mm 6 mps 741 mmHg 70%
    09:00 -1°C° 0 mm 6 mps 740 mmHg 73%
    10:00 0°C° 0 mm 7 mps 740 mmHg 74%
    11:00 +3°C° 0 mm 7 mps 739 mmHg 76%
    12:00 +4°C° 0 mm 7 mps 739 mmHg 77%
    13:00 +4°C° 0 mm 7 mps 738 mmHg 80%
    14:00 +4°C° 0 mm 7 mps 738 mmHg 82%
    15:00 +5°C° 0 mm 7 mps 738 mmHg 84%
    16:00 +5°C° 0 mm 6 mps 738 mmHg 86%
    17:00 +5°C° 0 mm 6 mps 738 mmHg 88%
    18:00 +6°C° 0 mm 5 mps 738 mmHg 90%
    19:00 +6°C° 0 mm 5 mps 738 mmHg 91%
    20:00 +5°C° 0 mm 4 mps 738 mmHg 92%
    21:00 +5°C° 0 mm 4 mps 737 mmHg 93%
    22:00 +6°C° 0.1 mm 4 mps 737 mmHg 93%
    23:00 +6°C° 0.1 mm 4 mps 737 mmHg 93%

    Day after tomorrow, 9 December, Monday

    Time Temperature Precipitation Wind Pressure Humidity
    00:00 +6°C° 0.1 mm 5 mps 737 mmHg 94%
    01:00 +6°C° 0.4 mm 5 mps 736 mmHg 94%
    02:00 +7°C° 0.4 mm 6 mps 736 mmHg 94%
    03:00 +7°C° 0.4 mm 6 mps 735 mmHg 94%
    04:00 +7°C° 0.6 mm 6 mps 735 mmHg 95%
    05:00 +7°C° 0.6 mm 5 mps 734 mmHg 95%
    06:00 +7°C° 0.6 mm 5 mps 734 mmHg 95%
    07:00 +7°C° 0.3 mm 5 mps 733 mmHg 95%
    08:00 +7°C° 0.3 mm 5 mps 733 mmHg 95%
    09:00 +7°C° 0.3 mm 5 mps 732 mmHg 95%
    10:00 +8°C° 0 mm 4 mps 731 mmHg 95%
    11:00 +8°C° 0 mm 4 mps 731 mmHg 95%
    12:00 +8°C° 0 mm 4 mps 730 mmHg 95%
    13:00 +9°C° 0 mm 3 mps 729 mmHg 95%
    14:00 +9°C° 0 mm 3 mps 729 mmHg 95%
    15:00 +9°C° 0 mm 3 mps 728 mmHg 95%
    16:00 +9°C° 0 mm 3 mps 728 mmHg 94%
    17:00 +8°C° 0 mm 4 mps 728 mmHg 94%
    18:00 +8°C° 0 mm 4 mps 728 mmHg 93%
    19:00 +8°C° 0 mm 5 mps 729 mmHg 91%
    20:00 +7°C° 0 mm 5 mps 729 mmHg 88%
    21:00 +7°C° 0 mm 6 mps 730 mmHg 86%
    22:00 +4°C° 0 mm 6 mps 730 mmHg 82%
    23:00 +3°C° 0 mm 7 mps 731 mmHg 78%

    10 December, Tuesday

    Time Temperature Precipitation Wind Pressure Humidity
    00:00 0°C° 0 mm 7 mps 732 mmHg 74%
    01:00 -1°C° 0 mm 7 mps 733 mmHg 73%
    02:00 -2°C° 0 mm 7 mps 733 mmHg 71%
    03:00 -3°C° 0 mm 6 mps 734 mmHg 69%
    04:00 -4°C° 0 mm 6 mps 735 mmHg 68%
    05:00 -4°C° 0 mm 6 mps 736 mmHg 67%
    06:00 -5°C° 0 mm 6 mps 737 mmHg 66%
    07:00 -5°C° 0 mm 5 mps 738 mmHg 63%
    08:00 -5°C° 0 mm 5 mps 738 mmHg 60%
    09:00 -5°C° 0 mm 5 mps 739 mmHg 57%
    10:00 -4°C° 0 mm 5 mps 739 mmHg 56%
    11:00 -4°C° 0 mm 5 mps 739 mmHg 54%
    12:00 -2°C° 0 mm 5 mps 739 mmHg 52%
    13:00 -3°C° 0 mm 6 mps 739 mmHg 52%
    14:00 -3°C° 0 mm 6 mps 739 mmHg 53%
    15:00 -3°C° 0 mm 7 mps 739 mmHg 53%
    16:00 -4°C° 0 mm 6 mps 740 mmHg 55%
    17:00 -5°C° 0 mm 6 mps 740 mmHg 56%
    18:00 -5°C° 0 mm 6 mps 741 mmHg 58%
    19:00 -6°C° 0 mm 6 mps 741 mmHg 58%
    20:00 -6°C° 0 mm 6 mps 742 mmHg 59%
    21:00 -6°C° 0 mm 6 mps 742 mmHg 59%
    22:00 -8°C° 0 mm 7 mps 742 mmHg 59%
    23:00 -9°C° 0 mm 7 mps 743 mmHg 60%

    11 December, Wednesday

    Time Temperature Precipitation Wind Pressure Humidity
    00:00 -11°C° 0 mm 7 mps 743 mmHg 60%
    01:00 -11°C° 0 mm 7 mps 744 mmHg 58%
    02:00 -12°C° 0 mm 8 mps 744 mmHg 56%
    03:00 -13°C° 0 mm 8 mps 745 mmHg 53%
    04:00 -15°C° 0 mm 8 mps 746 mmHg 53%
    05:00 -15°C° 0 mm 8 mps 747 mmHg 52%
    06:00 -15°C° 0 mm 7 mps 747 mmHg 51%
    07:00 -15°C° 0 mm 7 mps 749 mmHg 49%
    08:00 -15°C° 0 mm 6 mps 750 mmHg 47%
    09:00 -15°C° 0 mm 6 mps 751 mmHg 44%
    10:00 -14°C° 0 mm 6 mps 751 mmHg 42%
    11:00 -14°C° 0 mm 6 mps 751 mmHg 39%
    12:00 -12°C° 0 mm 5 mps 752 mmHg 37%
    13:00 -12°C° 0 mm 5 mps 752 mmHg 37%
    14:00 -12°C° 0 mm 5 mps 753 mmHg 38%
    15:00 -11°C° 0 mm 5 mps 753 mmHg 39%
    16:00 -12°C° 0 mm 5 mps 754 mmHg 43%
    17:00 -12°C° 0 mm 5 mps 754 mmHg 47%
    18:00 -11°C° 0 mm 4 mps 755 mmHg 51%
    19:00 -11°C° 0 mm 4 mps 755 mmHg 52%
    20:00 -10°C° 0 mm 3 mps 755 mmHg 53%
    21:00 -12°C° 0 mm 3 mps 756 mmHg 54%
    22:00 -10°C° 0 mm 2 mps 756 mmHg 54%
    23:00 -10°C° 0 mm 2 mps 755 mmHg 54%

    12 December, Thursday

    Time Temperature Precipitation Wind Pressure Humidity
    00:00 -9°C° 0 mm 1 mps 755 mmHg 54%
    01:00 -9°C° 0 mm 1 mps 755 mmHg 54%
    02:00 -9°C° 0 mm 1 mps 755 mmHg 53%
    03:00 -9°C° 0 mm 1 mps 755 mmHg 53%
    04:00 -9°C° 0 mm 1 mps 755 mmHg 52%
    05:00 -9°C° 0 mm 1 mps 755 mmHg 51%
    06:00 -8°C° 0 mm 1 mps 755 mmHg 50%
    07:00 -9°C° 0 mm 2 mps 755 mmHg 50%
    08:00 -9°C° 0 mm 3 mps 756 mmHg 50%
    09:00 -8°C° 0 mm 3 mps 756 mmHg 50%
    10:00 -7°C° 0 mm 3 mps 755 mmHg 46%
    11:00 -6°C° 0 mm 3 mps 754 mmHg 43%
    12:00 -5°C° 0 mm 3 mps 753 mmHg 40%
    13:00 -5°C° 0 mm 3 mps 752 mmHg 40%
    14:00 -5°C° 0 mm 4 mps 752 mmHg 40%
    15:00 -5°C° 0 mm 4 mps 751 mmHg 40%
    16:00 -5°C° 0 mm 3 mps 750 mmHg 41%
    17:00 -5°C° 0 mm 3 mps 750 mmHg 42%
    18:00 -5°C° 0 mm 3 mps 749 mmHg 44%
    19:00 -4°C° 0 mm 3 mps 749 mmHg 43%
    20:00 -4°C° 0 mm 3 mps 749 mmHg 42%
    21:00 -4°C° 0 mm 3 mps 749 mmHg 41%
    22:00 -4°C° 0 mm 3 mps 748 mmHg 41%
    23:00 -5°C° 0 mm 3 mps 748 mmHg 40%
    Show more